When you browse on this site, cookies collect data to enhance your experience and personalize the content and advertising you see.
Visit our Privacy Policy to learn more. By continuing to use the site, you agree to this use of cookies and data.
  • In United Kingdom
  • List of Countries
  • For 7 days
  • Water Temperature
  • Satellite Maps
  • Weather Map
  • Weather Widgets
  • user-avatar
    Login

    Hourly Weather Stepanakert

    Today, 23 April, Tuesday

    Time Temperature Precipitation Wind Pressure Humidity
    00:00 +3°C° 0.6 mm 1 mps 693 mmHg 93%
    01:00 +3°C° 0.4 mm 1 mps 694 mmHg 91%
    02:00 +3°C° 0.4 mm 1 mps 694 mmHg 90%
    03:00 +3°C° 0 mm 1 mps 694 mmHg 90%
    04:00 +3°C° 0.4 mm 1 mps 694 mmHg 88%
    05:00 +3°C° 0.4 mm 1 mps 695 mmHg 87%
    06:00 +4°C° 0.4 mm 1 mps 695 mmHg 85%
    07:00 +5°C° 0.3 mm 1 mps 696 mmHg 83%
    08:00 +4°C° 0.3 mm 2 mps 696 mmHg 80%
    09:00 +5°C° 0 mm 2 mps 696 mmHg 77%
    10:00 +5°C° 0.2 mm 3 mps 696 mmHg 76%
    11:00 +7°C° 0.2 mm 3 mps 696 mmHg 74%
    12:00 +6°C° 0.2 mm 4 mps 696 mmHg 72%
    13:00 +7°C° 0.1 mm 4 mps 696 mmHg 72%
    14:00 +7°C° 0.1 mm 4 mps 696 mmHg 72%
    15:00 +7°C° 0.1 mm 4 mps 696 mmHg 71%
    16:00 +8°C° 0.1 mm 3 mps 696 mmHg 74%
    17:00 +7°C° 0.1 mm 3 mps 696 mmHg 77%
    18:00 +7°C° 0.1 mm 2 mps 697 mmHg 80%
    19:00 +6°C° 0.1 mm 2 mps 697 mmHg 82%
    20:00 +6°C° 0.1 mm 1 mps 697 mmHg 84%
    21:00 +5°C° 0.1 mm 1 mps 697 mmHg 86%
    22:00 +4°C° 0 mm 1 mps 698 mmHg 84%
    23:00 +4°C° 0 mm 1 mps 698 mmHg 83%

    Tomorrow, 24 April, Wednesday

    Time Temperature Precipitation Wind Pressure Humidity
    00:00 +4°C° 0 mm 1 mps 698 mmHg 81%
    01:00 +4°C° 0 mm 1 mps 698 mmHg 80%
    02:00 +4°C° 0 mm 1 mps 698 mmHg 79%
    03:00 +4°C° 0 mm 1 mps 698 mmHg 78%
    04:00 +5°C° 0 mm 1 mps 699 mmHg 78%
    05:00 +5°C° 0 mm 1 mps 699 mmHg 78%
    06:00 +5°C° 0 mm 1 mps 699 mmHg 78%
    07:00 +7°C° 0 mm 1 mps 699 mmHg 74%
    08:00 +8°C° 0 mm 1 mps 700 mmHg 71%
    09:00 +8°C° 0 mm 2 mps 700 mmHg 68%
    10:00 +9°C° 0.1 mm 2 mps 699 mmHg 67%
    11:00 +10°C° 0.1 mm 2 mps 699 mmHg 66%
    12:00 +10°C° 0.1 mm 2 mps 699 mmHg 65%
    13:00 +10°C° 0.1 mm 2 mps 698 mmHg 65%
    14:00 +12°C° 0.1 mm 2 mps 698 mmHg 66%
    15:00 +12°C° 0.1 mm 2 mps 697 mmHg 66%
    16:00 +10°C° 0.1 mm 2 mps 697 mmHg 69%
    17:00 +10°C° 0.1 mm 2 mps 697 mmHg 72%
    18:00 +10°C° 0.1 mm 1 mps 697 mmHg 74%
    19:00 +9°C° 0 mm 1 mps 697 mmHg 75%
    20:00 +8°C° 0 mm 1 mps 697 mmHg 76%
    21:00 +7°C° 0 mm 1 mps 698 mmHg 77%
    22:00 +7°C° 0.1 mm 1 mps 698 mmHg 77%
    23:00 +7°C° 0.1 mm 1 mps 698 mmHg 76%

    Day after tomorrow, 25 April, Thursday

    Time Temperature Precipitation Wind Pressure Humidity
    00:00 +7°C° 0.1 mm 1 mps 698 mmHg 76%
    01:00 +7°C° 0.1 mm 1 mps 698 mmHg 77%
    02:00 +7°C° 0.1 mm 1 mps 698 mmHg 78%
    03:00 +6°C° 0.1 mm 1 mps 698 mmHg 80%
    04:00 +7°C° 0.1 mm 1 mps 698 mmHg 80%
    05:00 +7°C° 0.1 mm 1 mps 698 mmHg 81%
    06:00 +6°C° 0.1 mm 0 mps 699 mmHg 81%
    07:00 +8°C° 0.1 mm 1 mps 699 mmHg 78%
    08:00 +9°C° 0.1 mm 1 mps 699 mmHg 75%
    09:00 +10°C° 0.1 mm 1 mps 699 mmHg 71%
    10:00 +10°C° 0.2 mm 2 mps 699 mmHg 68%
    11:00 +10°C° 0.2 mm 2 mps 699 mmHg 66%
    12:00 +12°C° 0.2 mm 2 mps 699 mmHg 63%
    13:00 +12°C° 0.2 mm 2 mps 698 mmHg 62%
    14:00 +13°C° 0.2 mm 2 mps 698 mmHg 62%
    15:00 +13°C° 0.2 mm 2 mps 698 mmHg 62%
    16:00 +12°C° 0.2 mm 1 mps 698 mmHg 65%
    17:00 +12°C° 0.2 mm 1 mps 698 mmHg 68%
    18:00 +11°C° 0.2 mm 1 mps 698 mmHg 72%
    19:00 +10°C° 0 mm 1 mps 698 mmHg 74%
    20:00 +9°C° 0 mm 1 mps 698 mmHg 76%
    21:00 +8°C° 0 mm 1 mps 698 mmHg 78%
    22:00 +6°C° 0 mm 2 mps 698 mmHg 77%
    23:00 +6°C° 0 mm 2 mps 698 mmHg 76%

    26 April, Friday

    Time Temperature Precipitation Wind Pressure Humidity
    00:00 +6°C° 0 mm 2 mps 698 mmHg 76%
    01:00 +5°C° 0 mm 2 mps 698 mmHg 75%
    02:00 +5°C° 0 mm 2 mps 698 mmHg 74%
    03:00 +5°C° 0 mm 2 mps 698 mmHg 74%
    04:00 +5°C° 0 mm 2 mps 698 mmHg 73%
    05:00 +5°C° 0 mm 2 mps 698 mmHg 72%
    06:00 +6°C° 0 mm 2 mps 698 mmHg 71%
    07:00 +7°C° 0 mm 2 mps 699 mmHg 65%
    08:00 +9°C° 0 mm 2 mps 699 mmHg 59%
    09:00 +12°C° 0 mm 2 mps 699 mmHg 53%
    10:00 +13°C° 0 mm 2 mps 699 mmHg 52%
    11:00 +14°C° 0 mm 2 mps 698 mmHg 50%
    12:00 +13°C° 0 mm 3 mps 698 mmHg 48%
    13:00 +14°C° 0 mm 3 mps 698 mmHg 48%
    14:00 +15°C° 0 mm 2 mps 697 mmHg 49%
    15:00 +15°C° 0 mm 2 mps 697 mmHg 49%
    16:00 +14°C° 0 mm 2 mps 697 mmHg 53%
    17:00 +13°C° 0 mm 2 mps 696 mmHg 57%
    18:00 +12°C° 0 mm 1 mps 696 mmHg 62%
    19:00 +11°C° 0 mm 1 mps 697 mmHg 64%
    20:00 +10°C° 0 mm 1 mps 697 mmHg 67%
    21:00 +7°C° 0 mm 2 mps 697 mmHg 70%
    22:00 +7°C° 0 mm 2 mps 697 mmHg 70%
    23:00 +7°C° 0 mm 2 mps 697 mmHg 70%

    27 April, Saturday

    Time Temperature Precipitation Wind Pressure Humidity
    00:00 +6°C° 0 mm 2 mps 697 mmHg 70%
    01:00 +6°C° 0 mm 2 mps 697 mmHg 70%
    02:00 +6°C° 0 mm 2 mps 697 mmHg 69%
    03:00 +5°C° 0 mm 2 mps 696 mmHg 69%
    04:00 +7°C° 0 mm 1 mps 697 mmHg 66%
    05:00 +7°C° 0 mm 1 mps 697 mmHg 64%
    06:00 +8°C° 0 mm 1 mps 697 mmHg 62%
    07:00 +9°C° 0 mm 1 mps 697 mmHg 57%
    08:00 +10°C° 0 mm 2 mps 697 mmHg 52%
    09:00 +13°C° 0 mm 2 mps 697 mmHg 47%
    10:00 +14°C° 0 mm 2 mps 697 mmHg 46%
    11:00 +15°C° 0 mm 2 mps 697 mmHg 45%
    12:00 +16°C° 0 mm 3 mps 697 mmHg 45%
    13:00 +16°C° 0 mm 3 mps 696 mmHg 46%
    14:00 +16°C° 0 mm 3 mps 696 mmHg 47%
    15:00 +16°C° 0 mm 3 mps 695 mmHg 48%
    16:00 +15°C° 0 mm 2 mps 695 mmHg 54%
    17:00 +14°C° 0 mm 2 mps 695 mmHg 59%
    18:00 +13°C° 0 mm 1 mps 695 mmHg 64%
    19:00 +12°C° 0 mm 1 mps 695 mmHg 68%
    20:00 +10°C° 0 mm 1 mps 695 mmHg 73%
    21:00 +9°C° 0 mm 1 mps 695 mmHg 77%
    22:00 +9°C° 0 mm 1 mps 695 mmHg 77%
    23:00 +8°C° 0 mm 1 mps 695 mmHg 76%

    28 April, Sunday

    Time Temperature Precipitation Wind Pressure Humidity
    00:00 +8°C° 0 mm 1 mps 694 mmHg 75%
    01:00 +8°C° 0 mm 1 mps 694 mmHg 74%
    02:00 +8°C° 0 mm 1 mps 694 mmHg 72%
    03:00 +7°C° 0 mm 1 mps 693 mmHg 71%
    04:00 +8°C° 0 mm 1 mps 694 mmHg 69%
    05:00 +8°C° 0 mm 1 mps 694 mmHg 66%
    06:00 +9°C° 0 mm 1 mps 694 mmHg 64%
    07:00 +11°C° 0 mm 1 mps 694 mmHg 60%
    08:00 +13°C° 0 mm 2 mps 694 mmHg 56%
    09:00 +15°C° 0 mm 2 mps 694 mmHg 53%
    10:00 +16°C° 0 mm 2 mps 693 mmHg 52%
    11:00 +17°C° 0 mm 2 mps 693 mmHg 51%
    12:00 +18°C° 0 mm 3 mps 693 mmHg 50%
    13:00 +18°C° 0.1 mm 3 mps 692 mmHg 52%
    14:00 +18°C° 0.1 mm 3 mps 692 mmHg 54%
    15:00 +18°C° 0.1 mm 3 mps 692 mmHg 56%
    16:00 +17°C° 0.8 mm 2 mps 692 mmHg 62%
    17:00 +16°C° 0.8 mm 2 mps 692 mmHg 68%
    18:00 +15°C° 0.8 mm 1 mps 692 mmHg 73%
    19:00 +15°C° 0.5 mm 1 mps 692 mmHg 75%
    20:00 +14°C° 0.5 mm 1 mps 692 mmHg 76%
    21:00 +13°C° 0.5 mm 1 mps 693 mmHg 77%
    22:00 +13°C° 0.2 mm 1 mps 693 mmHg 75%
    23:00 +13°C° 0.2 mm 2 mps 693 mmHg 73%
    Show more